EW3867 Weather Reports


time (UTC)temp
C
wind
direction
speed
KPH
gust
KPH
rain 1hr
cm
rain 24hr
cm
rain mn
cm
humidity
%
barometer
mb
20260502221149 18 178 6.4 29.0 0.00 0.00 0.00 22 1014.7
20260502220126 18 196 1.6 17.7 0.00 0.00 0.00 22 1014.8
20260502214029 17 145 11.3 24.1 0.00 0.00 0.00 21 1015.3
20260502212957 18 177 6.4 19.3 0.00 0.00 0.00 21 1015.4
20260502211934 18 153 1.6 17.7 0.00 0.00 0.00 20 1015.6
20260502210937 17 182 0.0 6.4 0.00 0.00 0.00 24 1015.8
20260502205944 17 134 6.4 12.9 0.00 0.00 0.00 23 1016.1
20260502204954 17 116 0.0 0.0 0.00 0.00 0.00 22 1016.2
20260502202848 17 184 6.4 4.8 0.00 0.00 0.00 24 1016.5
20260502201911 17 178 6.4 24.1 0.00 0.00 0.00 25 1016.6
20260502200849 17 128 1.6 16.1 0.00 0.00 0.00 25 1016.7
20260502194748 16 143 6.4 22.5 0.00 0.00 0.00 24 1017.1
20260502193803 16 125 6.4 20.9 0.00 0.00 0.00 24 1017.3
20260502192752 16 157 0.0 12.9 0.00 0.00 0.00 28 1017.2
20260502190712 16 138 1.6 12.9 0.00 0.00 0.00 28 1017.5
20260502185639 16 180 11.3 24.1 0.00 0.00 0.00 28 1017.7
20260502184653 16 139 6.4 22.5 0.00 0.00 0.00 28 1017.9
20260502183627 16 130 11.3 33.8 0.00 0.00 0.00 28 1018.0
20260502182614 16 140 12.9 27.4 0.00 0.00 0.00 27 1018.2
20260502181622 15 174 9.7 29.0 0.00 0.00 0.00 29 1018.2
20260502180552 15 79 6.4 29.0 0.00 0.00 0.00 29 1018.4
20260502163522 13 100 14.5 25.7 0.00 0.00 0.00 37 1018.5
20260502162530 13 109 17.7 29.0 0.00 0.00 0.00 36 1018.5
20260502161544 13 115 20.9 29.0 0.00 0.00 0.00 35 1018.6
20260502160527 12 138 14.5 22.5 0.00 0.00 0.00 38 1018.6
20260502152250 11 97 16.1 29.0 0.00 0.00 0.00 39 1018.4
20260502151239 11 78 11.3 24.1 0.00 0.00 0.00 42 1018.4
20260502150240 10 81 12.9 22.5 0.00 0.00 0.00 45 1018.5
20260502130717 5 51 12.9 20.9 0.00 0.00 0.00 64 1018.1
20260502122520 2 51 6.4 20.9 0.00 0.00 0.00 68 1017.8
20260502121530 2 51 11.3 20.9 0.00 0.00 0.00 68 1017.7
20260502115354 3 49 16.1 20.9 0.00 0.00 0.00 68 1017.6
20260502114401 2 49 14.5 20.9 0.00 0.00 0.00 69 1017.6
20260502113408 2 49 16.1 20.9 0.00 0.00 0.00 69 1017.6
20260502112403 2 44 16.1 24.1 0.00 0.00 0.00 69 1017.5
20260502111331 3 40 17.7 24.1 0.00 0.00 0.00 68 1017.5
20260502110340 3 46 14.5 20.9 0.00 0.00 0.00 68 1017.5
20260502105356 3 51 11.3 19.3 0.00 0.00 0.00 68 1017.5
20260502104326 3 53 11.3 17.7 0.00 0.00 0.00 68 1017.5
20260502103328 3 55 6.4 19.3 0.00 0.00 0.00 67 1017.6
20260502102330 3 55 9.7 19.3 0.00 0.00 0.00 68 1017.7
20260502101352 3 53 6.4 19.3 0.00 0.00 0.00 69 1017.8
20260502100357 3 51 11.3 17.7 0.00 0.00 0.00 69 1017.7
20260502091038 3 42 1.6 16.1 0.00 0.00 0.00 70 1017.5
20260502070458 3 58 0.0 14.5 0.00 0.00 0.00 65 1016.9
20260502065455 3 61 4.8 16.1 0.00 0.00 0.00 64 1016.9
20260502064449 3 109 0.0 12.9 0.00 0.00 0.00 63 1016.8
20260502063514 4 112 0.0 8.0 0.00 0.00 0.00 62 1016.6
20260502062519 4 122 0.0 0.0 0.00 0.00 0.00 62 1016.5
20260502055217 4 124 0.0 0.0 0.00 0.00 0.00 61 1016.2
20260502054157 4 123 0.0 0.0 0.00 0.00 0.00 60 1016.1
20260502053137 5 124 0.0 0.0 0.00 0.00 0.00 60 1016.0
20260502052117 5 124 0.0 3.2 0.00 0.00 0.00 60 1016.0
20260502051100 5 124 0.0 0.0 0.00 0.00 0.00 58 1016.0
20260502044910 6 124 1.6 14.5 0.00 0.00 0.00 55 1015.8
20260502043932 6 124 4.8 0.0 0.00 0.00 0.00 52 1015.6
20260502042914 6 113 9.7 20.9 0.00 0.00 0.00 51 1015.6
20260502041852 6 121 12.9 20.9 0.00 0.00 0.00 53 1015.3
20260502040901 6 158 1.6 14.5 0.00 0.00 0.00 50 1015.2
20260502035924 6 46 9.7 19.3 0.00 0.00 0.00 48 1014.8
20260502032609 7 26 9.7 17.7 0.00 0.00 0.00 45 1013.9
20260502030443 7 10 4.8 17.7 0.00 0.00 0.00 45 1013.4
20260502025425 8 32 6.4 17.7 0.00 0.00 0.00 45 1013.0
20260502022240 9 44 6.4 16.1 0.00 0.00 0.00 42 1012.4
20260502021216 9 38 6.4 20.9 0.00 0.00 0.00 41 1012.4
20260502020222 10 54 6.4 20.9 0.00 0.00 0.00 40 1012.2
20260502015157 11 56 6.4 19.3 0.00 0.00 0.00 37 1012.0
20260502014136 11 60 0.0 12.9 0.00 0.00 0.00 35 1011.8
20260502013156 11 55 0.0 1.6 0.00 0.00 0.00 34 1011.6
20260502012129 12 63 1.6 14.5 0.00 0.00 0.00 34 1011.4
20260502011106 12 63 4.8 17.7 0.00 0.00 0.00 34 1011.3
20260502010041 12 68 6.4 17.7 0.00 0.00 0.00 35 1011.0
20260502003935 12 22 6.4 20.9 0.00 0.00 0.00 37 1010.9
20260502002915 12 54 17.7 32.2 0.00 0.00 0.00 38 1010.6
20260502001907 12 51 20.9 32.2 0.00 0.00 0.00 38 1010.6
20260502000930 13 49 20.9 29.0 0.00 0.00 0.00 36 1010.5
20260501234846 14 61 22.5 29.0 0.00 0.00 0.00 33 1010.2
20260501233856 14 38 16.1 29.0 0.00 0.00 0.00 32 1010.0
20260501232909 16 63 12.9 27.4 0.00 0.00 0.00 30 1010.0
20260501231846 17 261 0.0 17.7 0.00 0.00 0.00 17 1009.8
20260501230819 17 267 6.4 0.0 0.00 0.00 0.00 17 1009.6
20260501225824 17 251 12.9 30.6 0.00 0.00 0.00 17 1009.4
20260501224805 17 0 4.8 22.5 0.00 0.00 0.00 18 1009.4
20260501223812 16 252 4.8 14.5 0.00 0.00 0.00 19 1009.4
20260501222748 15 0 0.0 1.6 0.00 0.00 0.00 20 1009.5